This is the latest recevied weather packets stored in our database for station/object K5SVV. If no packets are shown the sender has not sent any weather packets the latest 10 day(s).
| Time | Temp. | Humidity | Pressure | Rain* | Wind** | Luminosity | Snow |
|---|---|---|---|---|---|---|---|
| 1777993121 | 23.33° C | 86% | 1005.3 hPa | 0 mm | - | 417 W/m² | - |
| 1777992819 | 23.33° C | 86% | 1005.4 hPa | 0 mm | - | 210 W/m² | - |
| 1777992516 | 22.78° C | 87% | 1005.2 hPa | 0 mm | - | 388 W/m² | - |
| 1777992216 | 22.78° C | 87% | 1005.2 hPa | 0 mm | - | 238 W/m² | - |
| 1777991912 | 22.78° C | 87% | 1005 hPa | 0 mm | - | 214 W/m² | - |
| 1777991609 | 22.78° C | 87% | 1005 hPa | 0 mm | - | 263 W/m² | - |
| 1777991306 | 22.78° C | 87% | 1004.9 hPa | 0 mm | - | 209 W/m² | - |
| 1777991004 | 22.78° C | 87% | 1004.7 hPa | 0 mm | - | 179 W/m² | - |
| 1777990701 | 22.78° C | 87% | 1004.7 hPa | 0 mm | - | 218 W/m² | - |
| 1777990398 | 22.78° C | 87% | 1004.8 hPa | 0 mm | - | 200 W/m² | - |
| 1777989791 | 22.78° C | 87% | 1004.8 hPa | 0 mm | - | 277 W/m² | - |
| 1777989488 | 22.78° C | 86% | 1004.5 hPa | 0 mm | - | 246 W/m² | - |
| 1777989183 | 22.78° C | 87% | 1004.7 hPa | 0 mm | - | 283 W/m² | - |
| 1777988874 | 22.78° C | 87% | 1004.7 hPa | 0 mm | - | 218 W/m² | - |
| 1777988572 | 22.22° C | 88% | 1004.9 hPa | 0 mm | - | 220 W/m² | - |
| 1777988268 | 22.22° C | 88% | 1004.8 hPa | 0 mm | - | 218 W/m² | - |
| 1777987965 | 22.22° C | 89% | 1004.6 hPa | 0 mm | - | 253 W/m² | - |
| 1777987661 | 22.22° C | 89% | 1004.5 hPa | 0 mm | - | 224 W/m² | - |
| 1777987358 | 21.67° C | 89% | 1004.4 hPa | 0 mm | - | 195 W/m² | - |
| 1777987056 | 21.67° C | 90% | 1004.6 hPa | 0 mm | - | 172 W/m² | - |
| 1777986753 | 21.67° C | 90% | 1004.8 hPa | 0 mm | - | 157 W/m² | - |
| 1777986450 | 21.67° C | 90% | 1004.6 hPa | 0 mm | - | 146 W/m² | - |
| 1777986149 | 21.11° C | 91% | 1004.6 hPa | 0 mm | - | 116 W/m² | - |
| 1777985845 | 21.11° C | 91% | 1004.3 hPa | 0 mm | - | 116 W/m² | - |
| 1777985543 | 21.11° C | 92% | 1004.4 hPa | 0 mm | - | 118 W/m² | - |
* Rain latest hour (hover to see other rain measurements)
** Current wind speed in m/s (hover to see current wind gust speed)